Weather in Qozonketkan

Uzbekistan     43°01′00″N   59°21′33″E
temp.,
°C
wind,
m/s
gust,
m/s
humid.,
%
clouds,
%
prec.,
mm/h
press.,
hPa
HPBL,
m
12 may, wed
wed1223:00+23ene7123576 0.0 1018336
02:00+21ene5104097 0.0 1018228
05:00+20ene594499 0.0 1018168
08:00+23e57376 0.0 1020499
11:00+27ene77293 0.0 10201356
14:00+30ene88225 0.0 10192168
17:00+30ene98172 0.0 10182301
20:00+24nne912230 0.0 1019416
13 may, thu
thu1323:00+21nne69330 0.0 1019152
02:00+21ne511300 0.0 1018179
05:00+19ene613190 0.0 1019226
08:00+22e812180 0.0 1020507
11:00+27e89120 0.0 10201480
14:00+30ene8990 0.0 10191929
17:00+30ene9990 0.0 10192161
20:00+26ne710160 0.0 1019242
14 may, fri
fri1423:00+21ne610370 0.0 1020162
02:00+21ne59270 0.0 1020117
05:00+20ne57250 0.0 102084
08:00+24ne610230 0.0 1021381
11:00+29ene89190 0.0 10212208
14:00+31ne99180 0.0 10192459
17:00+30nne1110200 0.0 10192161
20:00+25nne812280 0.0 1019373
15 may, sat
sat1523:00+22nne510420 0.0 1019150
02:00+23ene511270 0.0 1018171
05:00+21ne57330 0.0 101895
08:00+25ne610280 0.0 1019406
11:00+30ene89190 0.0 10182624
14:00+31ne1010150 0.0 10172588
17:00+31ne1010120 0.0 10162682
20:00+27nne711190 0.0 1015308
16 may, sun
sun1623:00+22nne611390 0.0 1015177
02:00+22ne611180 0.0 1014187
05:00+20ne511210 0.0 1015174
08:00+23ene812180 0.0 1016601
11:00+28ene910120 0.0 10161454
14:00+31ene91090 0.0 10142036
17:00+32ene91080 0.0 10122506
20:00+29ene610120 0.0 1012191